lchu.net - /Documents/Ableton/Factory Packs/Chop and Swing/Ableton Folder Info/Previews/MIDI Clips/Music/Accompaniment/
[To Parent Directory]
2026年3月31日 下午 02:07 125645 16 Pennies E Minor 86bpm.alc.ogg
2026年3月31日 下午 02:07 56020 16 Pennies E Minor 86bpm.alc.ogg.asd
2026年3月31日 下午 02:07 63146 Bi-Phase Sector A Minor 75 bpm.alc.ogg
2026年3月31日 下午 02:07 29724 Bi-Phase Sector A Minor 75 bpm.alc.ogg.asd
2026年3月31日 下午 02:07 36366 Brass Wave G Minor 88bpm.alc.ogg
2026年3月31日 下午 02:07 18104 Brass Wave G Minor 88bpm.alc.ogg.asd
2026年3月31日 下午 02:07 48708 Climb Chord Pad A Minor 94bpm.alc.ogg
2026年3月31日 下午 02:07 31028 Climb Chord Pad A Minor 94bpm.alc.ogg.asd
2026年3月31日 下午 02:07 116629 Constant Pad G Minor 92bpm.alc.ogg
2026年3月31日 下午 02:07 59780 Constant Pad G Minor 92bpm.alc.ogg.asd
2026年3月31日 下午 02:07 154680 Creamy Voices Chords D minor 93 bpm.alc.ogg
2026年3月31日 下午 02:07 58912 Creamy Voices Chords D minor 93 bpm.alc.ogg.asd
2026年3月31日 下午 02:07 103068 Dan Piano Chords B Minor 85 bpm.alc.ogg
2026年3月31日 下午 02:07 64288 Dan Piano Chords B Minor 85 bpm.alc.ogg.asd
2026年3月31日 下午 02:07 53175 Dan Piano G# Minor 80 bpm.alc.ogg
2026年3月31日 下午 02:07 35696 Dan Piano G# Minor 80 bpm.alc.ogg.asd
2026年3月31日 下午 02:07 36116 Dirty Back Bb min 86bpm.alc.ogg
2026年3月31日 下午 02:07 17932 Dirty Back Bb min 86bpm.alc.ogg.asd
2026年3月31日 下午 02:07 77628 Dirty Back Chords Aminor 92bpm.alc.ogg
2026年3月31日 下午 02:07 33120 Dirty Back Chords Aminor 92bpm.alc.ogg.asd
2026年3月31日 下午 02:07 75203 Electric Tubes Chords Ab Major 90 bpm.alc.ogg
2026年3月31日 下午 02:07 55956 Electric Tubes Chords Ab Major 90 bpm.alc.ogg.asd
2026年3月31日 下午 02:07 135249 Encryption Pad Chords F Minor 90bpm.alc.ogg
2026年3月31日 下午 02:07 56036 Encryption Pad Chords F Minor 90bpm.alc.ogg.asd
2026年3月31日 下午 02:07 78744 Fuzz Clav Chords A Minor 97bpm.alc.ogg
2026年3月31日 下午 02:07 29924 Fuzz Clav Chords A Minor 97bpm.alc.ogg.asd
2026年3月31日 下午 02:07 66274 Jimmy E min 88bpm.alc.ogg
2026年3月31日 下午 02:07 29908 Jimmy E min 88bpm.alc.ogg.asd
2026年3月31日 下午 02:07 41903 Little Amp Elecric Piano Chords C# Minor 85 bpm.alc.ogg
2026年3月31日 下午 02:07 33848 Little Amp Elecric Piano Chords C# Minor 85 bpm.alc.ogg.asd
2026年3月31日 下午 02:07 40344 Little Amp Electric Piano Chords Bb minor 77bpm.alc.ogg
2026年3月31日 下午 02:07 29704 Little Amp Electric Piano Chords Bb minor 77bpm.alc.ogg.asd
2026年3月31日 下午 02:07 93803 Little Amp Electric Piano D Minor 94bpm.alc.ogg
2026年3月31日 下午 02:07 58492 Little Amp Electric Piano D Minor 94bpm.alc.ogg.asd
2026年3月31日 下午 02:07 102020 Little Amp Electric Piano Eb Minor 94bpm.alc.ogg
2026年3月31日 下午 02:07 58392 Little Amp Electric Piano Eb Minor 94bpm.alc.ogg.asd
2026年3月31日 下午 02:07 56506 LoFi FM EP Chords A Minor 92bpm.alc.ogg
2026年3月31日 下午 02:07 31492 LoFi FM EP Chords A Minor 92bpm.alc.ogg.asd
2026年3月31日 下午 02:07 73112 Muddy Whirl Piano 2 C Minor 85bpm.alc.ogg
2026年3月31日 下午 02:07 56104 Muddy Whirl Piano 2 C Minor 85bpm.alc.ogg.asd
2026年3月31日 下午 02:07 85086 Muddy Whirl Piano A Minor 85bpm.alc.ogg
2026年3月31日 下午 02:07 56328 Muddy Whirl Piano A Minor 85bpm.alc.ogg.asd
2026年3月31日 下午 02:07 72039 Muddy Whirl Piano C Minor 85bpm.alc.ogg
2026年3月31日 下午 02:07 56108 Muddy Whirl Piano C Minor 85bpm.alc.ogg.asd
2026年3月31日 下午 02:07 42301 Muddy Whirl Piano Chords A minor 80 bpm.alc.ogg
2026年3月31日 下午 02:07 29972 Muddy Whirl Piano Chords A minor 80 bpm.alc.ogg.asd
2026年3月31日 下午 02:07 100308 Muddy Whirl Piano E Minor 2 85bpm.alc.ogg
2026年3月31日 下午 02:07 56492 Muddy Whirl Piano E Minor 2 85bpm.alc.ogg.asd
2026年3月31日 下午 02:07 102064 Muddy Whirl Piano E Minor 85bpm.alc.ogg
2026年3月31日 下午 02:07 56464 Muddy Whirl Piano E Minor 85bpm.alc.ogg.asd
2026年3月31日 下午 02:07 67386 Neo Soul Glide Pad Progression Am 93bpm.alc.ogg
2026年3月31日 下午 02:07 56516 Neo Soul Glide Pad Progression Am 93bpm.alc.ogg.asd
2026年3月31日 下午 02:07 113776 Pan Party EP Chords D Minor 85bpm.alc.ogg
2026年3月31日 下午 02:07 64256 Pan Party EP Chords D Minor 85bpm.alc.ogg.asd
2026年3月31日 下午 02:07 113916 Phantom Rotation C Minor 90BPM.alc.ogg
2026年3月31日 下午 02:07 55952 Phantom Rotation C Minor 90BPM.alc.ogg.asd
2026年3月31日 下午 02:07 73553 Pitbull Chords Gb Minor 84 bpm.alc.ogg
2026年3月31日 下午 02:07 29860 Pitbull Chords Gb Minor 84 bpm.alc.ogg.asd
2026年3月31日 下午 02:07 126348 Process Keys Chords C major 88 bpm.alc.ogg
2026年3月31日 下午 02:07 62012 Process Keys Chords C major 88 bpm.alc.ogg.asd
2026年3月31日 下午 02:07 127946 R&B Keys Chords F Major 98bpm.alc.ogg
2026年3月31日 下午 02:07 56444 R&B Keys Chords F Major 98bpm.alc.ogg.asd
2026年3月31日 下午 02:07 51364 Rcrd Plnt Bbminor 88bpm.alc.ogg
2026年3月31日 下午 02:07 32460 Rcrd Plnt Bbminor 88bpm.alc.ogg.asd
2026年3月31日 下午 02:07 48846 Rcrd Plnt Chords E Minor 91 bpm.alc.ogg
2026年3月31日 下午 02:07 35680 Rcrd Plnt Chords E Minor 91 bpm.alc.ogg.asd
2026年3月31日 下午 02:07 117805 Rcrd Plnt D Minor 86bpm.alc.ogg
2026年3月31日 下午 02:07 56244 Rcrd Plnt D Minor 86bpm.alc.ogg.asd
2026年3月31日 下午 02:07 85808 Rcrd Plnt Eb major 94bpm.alc.ogg
2026年3月31日 下午 02:07 61228 Rcrd Plnt Eb major 94bpm.alc.ogg.asd
2026年3月31日 下午 02:07 56267 Rcrd Plnt Eb minor 88bpm.alc.ogg
2026年3月31日 下午 02:07 32356 Rcrd Plnt Eb minor 88bpm.alc.ogg.asd
2026年3月31日 下午 02:07 57489 Rcrd Plnt F minor 88bpm.alc.ogg
2026年3月31日 下午 02:07 32448 Rcrd Plnt F minor 88bpm.alc.ogg.asd
2026年3月31日 下午 02:07 130007 Rcrd Plnt Progression Am 93bpm.alc.ogg
2026年3月31日 下午 02:07 61020 Rcrd Plnt Progression Am 93bpm.alc.ogg.asd
2026年3月31日 下午 02:07 55394 Rise Clav Arpeggio C minor 73 bpm.alc.ogg
2026年3月31日 下午 02:07 30012 Rise Clav Arpeggio C minor 73 bpm.alc.ogg.asd
2026年3月31日 下午 02:07 109476 Rise Clav D Minor 86bpm.alc.ogg
2026年3月31日 下午 02:07 56068 Rise Clav D Minor 86bpm.alc.ogg.asd
2026年3月31日 下午 02:07 107929 Rise Clav D Minor 88bpm.alc.ogg
2026年3月31日 下午 02:07 56328 Rise Clav D Minor 88bpm.alc.ogg.asd
2026年3月31日 下午 02:07 174390 Smokey Keys Bb minor 81 bpm.alc.ogg
2026年3月31日 下午 02:07 67456 Smokey Keys Bb minor 81 bpm.alc.ogg.asd
2026年3月31日 下午 02:07 122475 Space Pad Chords Cminor 80bpm.alc.ogg
2026年3月31日 下午 02:07 32720 Space Pad Chords Cminor 80bpm.alc.ogg.asd
2026年3月31日 下午 02:07 127881 Space Pad Chords E Minor 96bpm.alc.ogg
2026年3月31日 下午 02:07 57020 Space Pad Chords E Minor 96bpm.alc.ogg.asd
2026年3月31日 下午 02:07 88507 Tempo Wah Clav Chords D Minor 94 bpm.alc.ogg
2026年3月31日 下午 02:07 58332 Tempo Wah Clav Chords D Minor 94 bpm.alc.ogg.asd
2026年3月31日 下午 02:07 54551 Vinyl Drawbs F Minor 83 bpm.alc.ogg
2026年3月31日 下午 02:07 34448 Vinyl Drawbs F Minor 83 bpm.alc.ogg.asd